User: anonymous   Login
Location: Parc des �les de St-Timoth�e
(45.2924°N, 74.0481°W)
Time: 06:24:48
(UTC-04:00)
Language:

Cosmos 2173 Rocket - Orbit

View from above orbital plane
View from above orbital plane
View from above satellite
View from above satellite

Ground track
Ground track

The orbit data is extracted from the following two-line orbital elements,

1 21797U 91081B   16269.94465284 -.00000070 +00000-0 -85796-4 0  9999
2 21797 082.9505 258.4068 0039400 108.1872 309.8125 13.77381282247758
Epoch (UTC): 25 September 2016 22:40:18
Eccentricity: 0.0039400
inclination: 82.9505°
perigee height: 944 km
apogee height: 1002 km
right ascension of ascending node: 258.4068°
argument of perigee: 108.1872°
revolutions per day: 13.77381282
mean anomaly at epoch: 309.8125°
orbit number at epoch: 24775

The dashed part of the orbit path shows where the satellite is in the earth's shadow,  

DLR